Tracking 29747 objects as of 9-Oct-2024
HD Live streaming from Space Station
objects crossing your sky now

SL-14 DEB

Track SL-14 DEB now!
10-day predictions


NORAD ID: 45297
Int'l Code: 1991-056AK
Perigee: 1,153.8 km
Apogee: 1,281.7 km
Inclination: 82.6 °
Period: 109.7 minutes
Semi major axis: 7588 km
RCS: Unknown
Launch date: August 15, 1991
Source: Commonwealth of Independent States (former USSR) (CIS)
Launch site: PLESETSK MISSILE AND SPACE COMPLEX (PKMTR)

Note: This is SATELLITE DEBRIS
Your satellite tracking list
Your tracking list is empty




NASA's NSSDC Master Catalog

Two Line Element Set (TLE):
1 45297U 91056AK  24282.95045437  .00013633  00000-0  36702-1 0  9998
2 45297  82.6026 247.1096 0084228  86.1263 274.9482 13.13252714220078
Source of the keplerian elements: AFSPC